STARLINK-3783 (52282 NORAD) Tracking and Keplerian Element Data

This shows tracking and keplerian element data for the satellite.

Feedback or suggestion? Click here.




ElementValue
Catalog52282
NameSTARLINK-3783
Epoch Orbit130
Epoch Day167.08334491
Epoch Year2022
RAAN101.3501
Inclination53.2172
Eccentricity0.0001218
Argument of Perigee81.5926
Mean Anonmoly182.5832
Mean Motion15.54909498
Decay Rate-0.0071272
L11 52282U 22041X 22167.08334491 -.00712720 00000+0 -11447-1 0 9996
L22 52282 53.2172 101.3501 0001218 81.5926 182.5832 15.54909498 1302

Live tracking and technical data element details for STARLINK-3783 (NORAD 52282). STARLINK-3783 can be tracked NOW for your location showing map with azimuth and elevation plus other details from your city location.

Track the satellite on the map from your city or location and see movement details for azimuth, elevation, latitude, longitude, range, height, and movement on the map or in text.







IsCatalogInMostPopularTable: catalog: 52282, numindb: 1
Update: records affected: 1



GetName: 52282 STARLINK-3783

Hit Count: updated at: Mon, 27 Jun 2022 05:37:45 GMT